Preview of NWS' New Version of Forecast
This preview is not operational and should not be used for support decisions.

Regional Weather Roundup (RWR)

Issued by National Weather Service (NWS)

                            
000
ASUS43 KDMX 190106
RWRIA 

WEATHER ROUNDUP FOR IOWA
NATIONAL WEATHER SERVICE DES MOINES IA
800 PM CDT SAT MAY 18 2019

NOTE: "FAIR" INDICATES FEW OR NO CLOUDS BELOW 12,000 FEET WITH NO
SIGNIFICANT WEATHER AND/OR OBSTRUCTIONS TO VISIBILITY.

* - THESE STATIONS ARE NOT NWS STATIONS...THUS NOT UNDER NWS
QUALITY CONTROL.  THEY ALSO DO NOT REPORT WEATHER SUCH 
AS PRECIPITATION OR FOG.  

IAZ001>003-012>014-020>022-031>034-043>046-190200-
   NORTHWEST IOWA
  
CITY           SKY/WX    TMP DP  RH WIND       PRES   REMARKS
CARROLL *      LGT RAIN  63  61  94 NW7       29.58R                  
CHEROKEE *     CLOUDY    62  58  88 NW6       29.60S                  
DENISON *      LGT RAIN  63  61  94 CALM      29.63R                  
LE MARS *      CLOUDY    61  57  88 NW9       29.60F                  
SHELDON *      CLOUDY    61  61 100 NW9       29.59F                  
SIOUX CITY     CLOUDY    61  54  77 NW15      29.60R                  
SPENCER        CLOUDY    63  58  83 NW7       29.61R                  
STORM LAKE *   HVY RAIN  61  61 100 S15       29.59R                  
$$
 
IAZ055>058-069>071-079>083-090>094-190200-
   SOUTHWEST IOWA
  
CITY           SKY/WX    TMP DP  RH WIND       PRES   REMARKS
ATLANTIC *     LGT RAIN  63  63 100 W7        29.58R                  
AUDUBON *      LGT RAIN  63  57  82 CALM      29.60R                  
CLARINDA *     CLOUDY    63  61  94 CALM      29.61R                  
COUNCIL BLFS * LGT RAIN  61  61 100 NW7       29.60R                  
CRESTON *      CLOUDY    63  61  94 NW7       29.56R                  
HARLAN  *      LGT RAIN  63  61  94 W13       29.61R                  
LAMONI         MOCLDY    62  60  93 E5        29.54R                  
RED OAK *      CLOUDY    61  61 100 NW7G13    29.61R                  
SHENANDOAH *   CLOUDY    63  63 100 NW6       29.59R                  
$$
 
IAZ047>049-059>061-072>074-084-190200-
   CENTRAL IOWA
  
CITY           SKY/WX    TMP DP  RH WIND       PRES   REMARKS
AMES           LGT RAIN  62  61  96 NE5       29.57F                  
ANKENY *       LGT RAIN  63  61  94 MISG      29.53F                  
BOONE *        LGT RAIN  63  63 100 NE9       29.57F                  
CHARITON *     CLOUDY    63  63 100 NE12      29.53F                  
DES MOINES     LGT RAIN  63  61  93 NE12      29.51F                  
GRINNELL*      RAIN      63  61  94 N6        29.60F                  
KNOXVILLE *    DRIZZLE   63  63 100 NE12      29.53F                  
MARSHALLTOWN   RAIN      62  62 100 N9        29.59F FOG              
NEWTON *       LGT RAIN  64  63  94 N8        29.58                   
PELLA *        LGT RAIN  63  61  96 NE6       29.58F                  
PERRY *        DRIZZLE   63  63 100 N7        29.54F                  
$$
 
IAZ004>006-015-016-023>025-035-036-190200-
   NORTH CENTRAL IOWA
  
CITY           SKY/WX    TMP DP  RH WIND       PRES   REMARKS
ALGONA *       CLOUDY    68  63  83 W8        29.58R                  
CLARION *      CLOUDY    64  63  94 SW6       29.61F FOG              
ESTHERVILLE    CLOUDY    60  54  80 N12G21    29.59R                  
FORT DODGE *   LGT RAIN  63  60  90 SW3       29.60                   
MASON CITY     HVY RAIN  63  62  97 S22G35    29.63R VSB 3/4          
FOREST CITY *  RAIN      66  61  82 S22G28    29.60R                  
IOWA FALLS *   RAIN      64  62  95 CALM      29.64F                  
$$

IAZ007>011-017>019-026>030-037>042-050>054-066-190200-
   NORTHEAST IOWA
  
CITY           SKY/WX    TMP DP  RH WIND       PRES   REMARKS
CEDAR RAPIDS   TSTM      63  60  90 MISG      29.63S                  
CHARLES CITY * RAIN      64  63  94 SW13G21   29.64R                  
CLINTON *      LGT RAIN  66  65  96 SE6       29.64F                  
DECORAH *      LGT RAIN  59  59 100 NE9       29.63F                  
DUBUQUE        LGT RAIN  67  64  90 S12       29.67R                  
MONTICELLO *   LGT RAIN  66  66 100 W7        29.66R                  
OELWEIN *      CLOUDY    68  68 100 SW18      29.65R FOG              
WATERLOO       HVY RAIN  65  62  90 SW6       29.64R FOG              
$$
 
IAZ064-065-067-068-078-190200-
   EAST CENTRAL IOWA
  
CITY           SKY/WX    TMP DP  RH WIND       PRES   REMARKS
DAVENPORT      CLOUDY    68  64  87 SE13      29.64F                  
IOWA CITY      CLOUDY    64  61  90 NE7       29.59F THUNDER          
MT. PLEASANT * CLOUDY    70  68  94 SE10      29.59F                  
MUSCATINE *    CLOUDY    66  64  94 CALM      29.61R                  
QUAD CITIES    CLOUDY    70  65  84 SE12      29.61F                  
$$
 
IAZ062-063-075>077-085>089-095>099-190200-
   SOUTHEAST IOWA
  
CITY           SKY/WX    TMP DP  RH WIND       PRES   REMARKS
BURLINGTON     CLOUDY    72  64  76 SE9       29.60F                  
FAIRFIELD *    CLOUDY    66  64  94 NW13      29.60F                  
FORT MADISON * CLOUDY    72  68  88 SE9       29.60F                  
KEOKUK *       CLOUDY    72  70  94 SE8       29.59S                  
OSKALOOSA *    RAIN      64  62  94 E13       29.61F                  
CENTERVILLE *  FAIR      63  63 100 NE9G17    29.54F                  
OTTUMWA        RAIN      65  63  93 E8        29.60F FOG              
WASHINGTON *   CLOUDY    70  70 100 SW10      29.62R                  
$$

ABBREVIATIONS USED IN REMARKS
   TC - TEMPERATURES IN CELSIUS
  WCI - WIND CHILL INDEX
   HX - HEAT INDEX
  VSB - VISIBILITY  
$$